EW0642 Weather Reports


Display with metric or nautical units.
time (UTC)temp
F
wind
direction
speed
MPH
gust
MPH
rain 1hr
in
rain 24hr
in
rain mn
in
humidity
%
barometer
mb
20260902023527 84 294 1.0 3.0 0.00 0.00 0.00 71 1014.4
20260902023005 84 252 1.0 4.0 0.00 0.00 0.00 71 1014.3
20260902022506 84 238 1.0 5.0 0.00 0.00 0.00 72 1014.3
20260902022026 84 229 1.0 5.0 0.00 0.00 0.00 72 1014.3
20260902021527 84 225 1.0 5.0 0.00 0.00 0.00 72 1014.3
20260902021005 84 225 1.0 4.0 0.00 0.00 0.00 73 1014.3
20260902020526 84 205 1.0 4.0 0.00 0.00 0.00 73 1014.3
20260902020026 84 202 1.0 5.0 0.00 0.00 0.00 73 1014.3
20260902015506 84 197 1.0 5.0 0.00 0.00 0.00 73 1014.2
20260902015026 84 202 1.0 5.0 0.00 0.00 0.00 73 1014.2
20260902014505 85 210 1.0 5.0 0.00 0.00 0.00 73 1014.2
20260902014006 85 207 1.0 4.0 0.00 0.00 0.00 73 1014.1
20260902013505 85 192 2.0 5.0 0.00 0.00 0.00 73 1014.1
20260902013005 85 185 2.0 5.0 0.00 0.00 0.00 73 1014.0
20260902012527 85 191 2.0 5.0 0.00 0.00 0.00 72 1013.9
20260902012005 85 189 1.0 5.0 0.00 0.00 0.00 72 1013.9
20260902011526 85 185 1.0 4.0 0.00 0.00 0.00 72 1013.8
20260902011005 86 207 0.0 1.0 0.00 0.00 0.00 71 1013.9
20260902010505 86 215 0.0 1.0 0.00 0.00 0.00 71 1014.1
20260902010006 86 0 0.0 0.0 0.00 0.00 0.00 70 1014.1
20260902005528 86 0 0.0 0.0 0.00 0.00 0.00 70 1014.1
20260902005026 86 215 0.0 1.0 0.00 0.00 0.00 70 1013.9
20260902004506 87 208 0.0 2.0 0.00 0.00 0.00 69 1013.8
20260902004026 87 201 1.0 3.0 0.00 0.00 0.00 69 1013.6
20260902003505 87 216 0.0 3.0 0.00 0.00 0.00 69 1013.4
20260902003005 88 246 1.0 2.0 0.00 0.00 0.00 68 1013.3
20260902002505 88 220 1.0 3.0 0.00 0.00 0.00 68 1013.2
20260902002027 88 195 1.0 3.0 0.00 0.00 0.00 67 1013.0
20260902001526 89 183 1.0 3.0 0.00 0.00 0.00 66 1012.8
20260902001026 89 180 0.0 3.0 0.00 0.00 0.00 65 1012.7
20260902000505 90 196 0.0 2.0 0.00 0.00 0.00 65 1012.6
20260902000026 90 195 0.0 1.0 0.00 0.00 0.00 64 1012.8
20260901235506 90 0 0.0 0.0 0.00 0.00 0.00 63 1012.9
20260901235026 91 0 0.0 0.0 0.00 0.00 0.00 62 1012.9
20260901234526 91 195 0.0 1.0 0.00 0.00 0.00 61 1012.9
20260901234005 91 195 0.0 1.0 0.00 0.00 0.00 61 1012.9
20260901233526 92 195 0.0 1.0 0.00 0.00 0.00 60 1013.0
20260901233005 92 195 0.0 1.0 0.00 0.00 0.00 60 1013.0
20260901232505 92 195 0.0 1.0 0.00 0.00 0.00 59 1013.0
20260901232006 92 195 0.0 1.0 0.00 0.00 0.00 59 1013.1
20260901231505 92 196 0.0 2.0 0.00 0.00 0.00 59 1013.0
20260901231026 93 192 0.0 2.0 0.00 0.00 0.00 58 1013.0
20260901230526 93 189 0.0 2.0 0.00 0.00 0.00 58 1013.1
20260901230008 93 195 0.0 2.0 0.00 0.00 0.00 57 1013.1
20260901225505 93 203 0.0 2.0 0.00 0.00 0.00 57 1013.2
20260901225005 94 195 0.0 2.0 0.00 0.00 0.00 56 1013.2
20260901224505 94 202 1.0 4.0 0.00 0.00 0.00 56 1013.3
20260901224005 94 197 2.0 6.0 0.00 0.00 0.00 56 1013.3
20260901223507 94 197 2.0 6.0 0.00 0.00 0.00 55 1013.2
20260901223006 95 207 2.0 7.0 0.00 0.00 0.00 54 1013.2
20260901222527 95 204 2.0 7.0 0.00 0.00 0.00 54 1013.2
20260901222005 95 195 1.0 4.0 0.00 0.00 0.00 54 1013.2
20260901221526 96 236 1.0 6.0 0.00 0.00 0.00 54 1013.3
20260901221006 96 234 3.0 8.0 0.00 0.00 0.00 53 1013.3
20260901220505 96 236 3.0 8.0 0.00 0.00 0.00 51 1013.3
20260901220026 96 220 2.0 7.0 0.00 0.00 0.00 52 1013.3
20260901215526 96 204 2.0 7.0 0.00 0.00 0.00 51 1013.3
20260901215027 97 222 2.0 7.0 0.00 0.00 0.00 51 1013.3
20260901214505 97 228 2.0 6.0 0.00 0.00 0.00 50 1013.3
20260901214027 97 235 2.0 6.0 0.00 0.00 0.00 50 1013.2
20260901213526 97 236 1.0 4.0 0.00 0.00 0.00 50 1013.3
20260901213005 97 195 0.0 2.0 0.00 0.00 0.00 51 1013.4
20260901212505 97 196 0.0 3.0 0.00 0.00 0.00 51 1013.4
20260901212005 97 208 1.0 3.0 0.00 0.00 0.00 51 1013.5
20260901211506 97 218 1.0 3.0 0.00 0.00 0.00 49 1013.5
20260901211026 96 220 1.0 3.0 0.00 0.00 0.00 54 1013.5
20260901210528 96 251 2.0 5.0 0.00 0.00 0.00 52 1013.6
20260901210026 95 268 2.0 5.0 0.00 0.00 0.00 51 1013.6
20260901205505 95 263 2.0 3.0 0.00 0.00 0.00 50 1013.6
20260901205005 95 260 2.0 8.0 0.00 0.00 0.00 50 1013.7
20260901204526 95 265 3.0 8.0 0.00 0.00 0.00 49 1013.7
20260901204026 96 276 2.0 6.0 0.00 0.00 0.00 49 1013.7
20260901203526 97 285 3.0 8.0 0.00 0.00 0.00 49 1013.7
20260901203026 97 279 2.0 8.0 0.00 0.00 0.00 47 1013.7
20260901202526 97 269 2.0 6.0 0.00 0.00 0.00 49 1013.8
20260901202005 97 294 2.0 6.0 0.00 0.00 0.00 49 1013.8
20260901201526 96 287 3.0 9.0 0.00 0.00 0.00 50 1013.8
20260901201005 96 247 4.0 9.0 0.00 0.00 0.00 51 1013.9
20260901200526 96 229 3.0 9.0 0.00 0.00 0.00 51 1013.9
20260901200026 96 236 3.0 7.0 0.00 0.00 0.00 50 1013.9
20260901195526 95 229 4.0 10.0 0.00 0.00 0.00 52 1014.1
20260901195026 95 214 4.0 11.0 0.00 0.00 0.00 52 1014.2
20260901194505 96 215 2.0 11.0 0.00 0.00 0.00 51 1014.2
20260901194026 96 268 2.0 9.0 0.00 0.00 0.00 52 1014.2
20260901193506 96 253 3.0 10.0 0.00 0.00 0.00 49 1014.4
20260901193005 96 261 3.0 10.0 0.00 0.00 0.00 49 1014.4
20260901192526 97 272 3.0 10.0 0.00 0.00 0.00 49 1014.4
20260901192026 97 259 3.0 7.0 0.00 0.00 0.00 50 1014.5
20260901191526 97 244 3.0 7.0 0.00 0.00 0.00 50 1014.5
20260901191027 97 250 3.0 10.0 0.00 0.00 0.00 51 1014.6
20260901190506 97 297 3.0 8.0 0.00 0.00 0.00 51 1014.6
20260901190005 97 281 3.0 8.0 0.00 0.00 0.00 52 1014.6
20260901185506 96 249 3.0 10.0 0.00 0.00 0.00 52 1014.7
20260901185027 96 280 3.0 10.0 0.00 0.00 0.00 51 1014.8
20260901184505 97 292 3.0 10.0 0.00 0.00 0.00 52 1014.8
20260901184006 97 287 2.0 10.0 0.00 0.00 0.00 54 1014.8
20260901183505 96 301 2.0 9.0 0.00 0.00 0.00 54 1014.8
20260901183005 96 254 4.0 10.0 0.00 0.00 0.00 53 1014.8
20260901182526 96 252 4.0 10.0 0.00 0.00 0.00 54 1014.7
20260901182026 96 272 2.0 9.0 0.00 0.00 0.00 54 1014.7
20260901181506 96 257 2.0 7.0 0.00 0.00 0.00 57 1014.7
20260901181026 96 229 1.0 5.0 0.00 0.00 0.00 57 1014.7
20260901180526 95 239 2.0 8.0 0.00 0.00 0.00 58 1014.8
20260901180026 94 256 2.0 8.0 0.00 0.00 0.00 58 1014.9
20260901175526 94 230 1.0 4.0 0.00 0.00 0.00 61 1014.9
20260901175005 92 240 2.0 8.0 0.00 0.00 0.00 62 1015.0
20260901174527 91 255 2.0 8.0 0.00 0.00 0.00 62 1015.1
20260901174007 91 262 2.0 8.0 0.00 0.00 0.00 62 1015.1
20260901173527 91 273 3.0 10.0 0.00 0.00 0.00 63 1015.1
20260901173005 91 272 3.0 10.0 0.00 0.00 0.00 61 1015.1
20260901172505 92 261 2.0 7.0 0.00 0.00 0.00 61 1015.0
20260901172006 92 265 2.0 6.0 0.00 0.00 0.00 61 1014.9
20260901171505 92 258 2.0 6.0 0.00 0.00 0.00 61 1014.9
20260901171026 92 267 1.0 6.0 0.00 0.00 0.00 61 1014.9
20260901170526 92 301 1.0 4.0 0.00 0.00 0.00 62 1015.0
20260901170005 92 272 2.0 6.0 0.00 0.00 0.00 61 1015.2
20260901165505 92 270 2.0 6.0 0.00 0.00 0.00 61 1015.3
20260901165028 92 266 2.0 7.0 0.00 0.00 0.00 61 1015.4
20260901164526 92 262 2.0 7.0 0.00 0.00 0.00 61 1015.4
20260901164027 92 249 2.0 8.0 0.00 0.00 0.00 61 1015.3
20260901163527 92 260 3.0 9.0 0.00 0.00 0.00 61 1015.4
20260901163027 92 260 4.0 9.0 0.00 0.00 0.00 60 1015.4
20260901162505 92 244 3.0 8.0 0.00 0.00 0.00 59 1015.5
20260901162026 93 247 4.0 11.0 0.00 0.00 0.00 60 1015.5
20260901161505 93 258 4.0 12.0 0.00 0.00 0.00 58 1015.6
20260901161026 93 278 4.0 12.0 0.00 0.00 0.00 58 1015.6
20260901160526 94 271 3.0 10.0 0.00 0.00 0.00 57 1015.6
20260901160005 93 265 2.0 10.0 0.00 0.00 0.00 59 1015.6
20260901155505 93 292 3.0 10.0 0.00 0.00 0.00 61 1015.7
20260901155026 92 282 3.0 9.0 0.00 0.00 0.00 62 1015.7
20260901154505 91 249 3.0 9.0 0.00 0.00 0.00 62 1015.9
20260901154005 91 247 4.0 11.0 0.00 0.00 0.00 61 1015.9
20260901153505 92 258 4.0 11.0 0.00 0.00 0.00 59 1016.0
20260901153006 92 241 4.0 13.0 0.00 0.00 0.00 59 1016.1
20260901152505 92 238 4.0 13.0 0.00 0.00 0.00 59 1016.2
20260901152028 92 247 3.0 10.0 0.00 0.00 0.00 61 1016.1
20260901151527 92 230 3.0 8.0 0.00 0.00 0.00 61 1016.1
20260901151026 92 215 3.0 8.0 0.00 0.00 0.00 61 1016.1
20260901150505 92 207 2.0 7.0 0.00 0.00 0.00 61 1016.2
20260901150026 92 224 2.0 6.0 0.00 0.00 0.00 63 1016.1
20260901145506 90 230 2.0 7.0 0.00 0.00 0.00 66 1016.2
20260901145005 90 254 2.0 7.0 0.00 0.00 0.00 66 1016.2
20260901144526 89 274 2.0 7.0 0.00 0.00 0.00 68 1016.3
20260901144005 89 259 2.0 7.0 0.00 0.00 0.00 70 1016.3
20260901143526 88 234 1.0 4.0 0.00 0.00 0.00 71 1016.3
20260901143027 87 231 1.0 4.0 0.00 0.00 0.00 73 1016.3
20260901142527 87 221 1.0 3.0 0.00 0.00 0.00 73 1016.2
20260901142026 87 226 2.0 8.0 0.00 0.00 0.00 72 1016.2
20260901141505 87 233 3.0 8.0 0.00 0.00 0.00 72 1016.2
20260901141026 87 239 4.0 8.0 0.00 0.00 0.00 71 1016.2
20260901140526 87 244 4.0 8.0 0.00 0.00 0.00 70 1016.3
20260901140006 88 242 2.0 8.0 0.00 0.00 0.00 70 1016.3
20260901135526 88 221 2.0 7.0 0.00 0.00 0.00 71 1016.2
20260901135005 86 213 3.0 7.0 0.00 0.00 0.00 74 1016.1
20260901134526 86 212 2.0 7.0 0.00 0.00 0.00 74 1016.1
20260901134026 86 231 1.0 6.0 0.00 0.00 0.00 75 1016.2
20260901133526 85 253 2.0 7.0 0.00 0.00 0.00 75 1016.3
20260901133007 85 251 3.0 9.0 0.00 0.00 0.00 76 1016.2
20260901132505 84 239 3.0 9.0 0.00 0.00 0.00 77 1016.2
20260901132026 84 240 2.0 7.0 0.00 0.00 0.00 80 1016.3
20260901131526 83 261 2.0 8.0 0.00 0.00 0.00 80 1016.4
20260901131005 82 253 2.0 8.0 0.00 0.00 0.00 81 1016.5
20260901130526 82 238 2.0 6.0 0.00 0.00 0.00 83 1016.5
20260901130027 81 245 2.0 7.0 0.00 0.00 0.00 85 1016.5
20260901125505 80 267 2.0 8.0 0.00 0.00 0.00 88 1016.7
20260901125006 80 273 2.0 8.0 0.00 0.00 0.00 90 1016.8
20260901124506 79 251 2.0 8.0 0.00 0.00 0.00 92 1016.8
20260901124027 78 251 3.0 8.0 0.00 0.00 0.00 93 1016.8
20260901123526 78 247 2.0 7.0 0.00 0.00 0.00 94 1016.7
20260901123005 77 236 1.0 7.0 0.00 0.00 0.00 95 1016.7
20260901122526 77 240 2.0 6.0 0.00 0.00 0.00 95 1016.8
20260901122026 76 237 1.0 6.0 0.00 0.00 0.00 95 1016.7
20260901121506 76 217 1.0 4.0 0.00 0.00 0.00 96 1016.8
20260901121005 76 213 1.0 3.0 0.00 0.00 0.00 96 1016.6
20260901120526 76 217 1.0 4.0 0.00 0.00 0.00 96 1016.7
20260901120005 75 203 0.0 4.0 0.00 0.00 0.00 96 1016.5
20260901115506 75 172 0.0 2.0 0.00 0.00 0.00 96 1016.5
20260901115005 74 184 0.0 3.0 0.00 0.00 0.00 96 1016.4
20260901114505 74 201 0.0 3.0 0.00 0.00 0.00 95 1016.4
20260901114005 74 0 0.0 0.0 0.00 0.00 0.00 95 1016.4
20260901113506 74 0 0.0 0.0 0.00 0.00 0.00 95 1016.4
20260901113006 73 0 0.0 0.0 0.00 0.00 0.00 95 1016.4
20260901112527 73 0 0.0 0.0 0.00 0.00 0.00 95 1016.4
20260901112026 73 0 0.0 0.0 0.00 0.00 0.00 95 1016.5
20260901111526 73 0 0.0 0.0 0.00 0.00 0.00 95 1016.6
20260901111005 73 0 0.0 0.0 0.00 0.00 0.00 95 1016.6
20260901110505 73 0 0.0 0.0 0.00 0.00 0.00 95 1016.5
20260901110026 73 0 0.0 0.0 0.00 0.00 0.00 95 1016.5
20260901105505 73 0 0.0 0.0 0.00 0.00 0.00 95 1016.5
20260901105026 73 0 0.0 0.0 0.00 0.00 0.00 95 1016.4
20260901104506 73 0 0.0 0.0 0.00 0.00 0.00 95 1016.5
20260901104005 73 0 0.0 0.0 0.00 0.00 0.00 95 1016.4
20260901103505 73 0 0.0 0.0 0.00 0.00 0.00 95 1016.4
20260901103026 73 0 0.0 0.0 0.00 0.00 0.00 95 1016.5
20260901102505 74 0 0.0 0.0 0.00 0.00 0.00 95 1016.3
20260901102026 74 0 0.0 0.0 0.00 0.00 0.00 95 1016.3
20260901101526 74 0 0.0 0.0 0.00 0.00 0.00 95 1016.2
20260901101026 74 0 0.0 0.0 0.00 0.00 0.00 95 1016.1
20260901100505 74 0 0.0 0.0 0.00 0.00 0.00 95 1016.1
20260901100005 74 0 0.0 0.0 0.00 0.00 0.00 95 1016.0
20260901095505 74 0 0.0 0.0 0.00 0.00 0.00 95 1016.2
20260901095026 74 0 0.0 0.0 0.00 0.00 0.00 95 1016.1
20260901094505 74 0 0.0 0.0 0.00 0.00 0.00 94 1016.0
20260901094026 74 0 0.0 0.0 0.00 0.00 0.00 94 1016.1
20260901093506 74 0 0.0 0.0 0.00 0.00 0.00 94 1016.2
20260901093006 74 0 0.0 0.0 0.00 0.00 0.00 94 1016.3
20260901092505 74 0 0.0 0.0 0.00 0.00 0.00 94 1016.5
20260901092005 74 0 0.0 0.0 0.00 0.00 0.00 94 1016.5
20260901091506 74 0 0.0 0.0 0.00 0.00 0.00 94 1016.4
20260901091006 74 0 0.0 0.0 0.00 0.00 0.00 94 1016.4
20260901090526 74 0 0.0 0.0 0.00 0.00 0.00 94 1016.4
20260901090006 74 0 0.0 0.0 0.00 0.00 0.00 94 1016.5
20260901085526 74 0 0.0 0.0 0.00 0.00 0.00 94 1016.4
20260901085026 74 0 0.0 0.0 0.00 0.00 0.00 94 1016.4
20260901084506 74 0 0.0 0.0 0.00 0.00 0.00 94 1016.4
20260901084026 74 0 0.0 0.0 0.00 0.00 0.00 94 1016.3
20260901083505 74 0 0.0 0.0 0.00 0.00 0.00 94 1016.3
20260901083026 74 0 0.0 0.0 0.00 0.00 0.00 94 1016.3
20260901082505 74 0 0.0 0.0 0.00 0.00 0.00 94 1016.3
20260901082026 74 0 0.0 0.0 0.00 0.00 0.00 94 1016.3
20260901081505 74 0 0.0 0.0 0.00 0.00 0.00 94 1016.3
20260901081005 74 0 0.0 0.0 0.00 0.00 0.00 94 1016.3
20260901080505 74 0 0.0 0.0 0.00 0.00 0.00 94 1016.3
20260901080026 74 0 0.0 0.0 0.00 0.00 0.00 94 1016.2
20260901075505 75 0 0.0 0.0 0.00 0.00 0.00 94 1016.2
20260901075005 75 0 0.0 0.0 0.00 0.00 0.00 94 1016.4
20260901074506 75 0 0.0 0.0 0.00 0.00 0.00 94 1016.4
20260901074005 75 0 0.0 0.0 0.00 0.00 0.00 94 1016.5
20260901073526 75 0 0.0 0.0 0.00 0.00 0.00 94 1016.6
20260901073026 75 0 0.0 0.0 0.00 0.00 0.00 94 1016.6
20260901072526 75 0 0.0 0.0 0.00 0.00 0.00 93 1016.7
20260901072005 75 0 0.0 0.0 0.00 0.00 0.00 94 1016.7
20260901071505 75 0 0.0 0.0 0.00 0.00 0.00 94 1016.7
20260901071005 75 0 0.0 0.0 0.00 0.00 0.00 94 1016.8
20260901070505 75 0 0.0 0.0 0.00 0.00 0.00 94 1016.8
20260901070026 75 0 0.0 0.0 0.00 0.00 0.00 93 1016.9
20260901065526 75 0 0.0 0.0 0.00 0.00 0.00 93 1016.9
20260901065005 75 0 0.0 0.0 0.00 0.00 0.00 93 1016.9
20260901064505 76 0 0.0 0.0 0.00 0.00 0.00 93 1017.0
20260901064005 76 0 0.0 0.0 0.00 0.00 0.00 93 1017.1
20260901063505 76 0 0.0 0.0 0.00 0.00 0.00 94 1017.1
20260901063026 76 0 0.0 0.0 0.00 0.00 0.00 94 1017.1
20260901062505 76 0 0.0 0.0 0.00 0.00 0.00 93 1017.0
20260901062026 76 0 0.0 0.0 0.00 0.00 0.00 93 1017.0
20260901061506 76 0 0.0 0.0 0.00 0.00 0.00 93 1017.0
20260901061006 76 0 0.0 0.0 0.00 0.00 0.00 93 1017.0
20260901060505 76 0 0.0 0.0 0.00 0.00 0.00 93 1017.1
20260901060026 76 0 0.0 0.0 0.00 0.00 0.00 93 1017.1
20260901055526 76 0 0.0 0.0 0.00 0.00 0.00 93 1017.0
20260901055027 76 0 0.0 0.0 0.00 0.00 0.00 93 1017.1
20260901054526 76 0 0.0 0.0 0.00 0.00 0.00 93 1017.3
20260901054005 76 0 0.0 0.0 0.00 0.00 0.00 93 1017.3
20260901053505 76 0 0.0 0.0 0.00 0.00 0.00 93 1017.3
20260901053005 76 0 0.0 0.0 0.00 0.00 0.00 93 1017.4
20260901052505 76 0 0.0 0.0 0.00 0.00 0.00 93 1017.4
20260901052027 76 0 0.0 0.0 0.00 0.00 0.00 92 1017.4
20260901051505 76 0 0.0 0.0 0.00 0.00 0.00 92 1017.4
20260901051005 76 0 0.0 0.0 0.00 0.00 0.00 92 1017.5
20260901050527 76 0 0.0 0.0 0.00 0.00 0.00 92 1017.5
20260901050005 76 0 0.0 0.0 0.00 0.00 0.00 92 1017.7
20260901045505 76 0 0.0 0.0 0.00 0.00 0.00 92 1017.7
20260901045026 76 0 0.0 0.0 0.00 0.00 0.00 92 1017.8
20260901044527 76 0 0.0 0.0 0.00 0.00 0.00 92 1017.8
20260901044005 76 0 0.0 0.0 0.00 0.00 0.00 91 1017.8
20260901043505 76 0 0.0 0.0 0.00 0.00 0.00 91 1017.9
20260901043005 76 0 0.0 0.0 0.00 0.00 0.00 91 1017.9
20260901042505 76 0 0.0 0.0 0.00 0.00 0.00 91 1017.8
20260901042005 76 0 0.0 0.0 0.00 0.00 0.00 91 1017.8
20260901041505 76 0 0.0 0.0 0.00 0.00 0.00 91 1017.8
20260901041026 76 0 0.0 0.0 0.00 0.00 0.00 91 1017.9
20260901040505 76 0 0.0 0.0 0.00 0.00 0.00 91 1017.9
20260901040028 76 0 0.0 0.0 0.00 0.00 0.00 91 1018.0
20260901035526 76 0 0.0 0.0 0.00 0.00 0.00 90 1017.9
20260901035005 77 359 0.0 1.0 0.00 0.00 0.00 90 1018.0
20260901034505 77 359 0.0 1.0 0.00 0.00 0.00 90 1018.0
20260901034026 77 359 0.0 1.0 0.00 0.00 0.00 90 1018.0
20260901033505 77 359 0.0 1.0 0.00 0.00 0.00 90 1017.9
20260901033005 77 359 0.0 1.0 0.00 0.00 0.00 90 1017.9
20260901032526 77 359 0.0 1.0 0.00 0.00 0.00 90 1017.9
20260901032006 77 359 0.0 1.0 0.00 0.00 0.00 90 1017.9
20260901031526 77 359 0.0 1.0 0.00 0.00 0.00 89 1017.9
20260901031005 78 0 0.0 0.0 0.00 0.00 0.00 89 1017.9
20260901030505 78 359 0.0 1.0 0.00 0.00 0.00 89 1018.0
20260901030005 78 359 0.0 1.0 0.00 0.00 0.00 89 1018.0
20260901025526 78 359 0.0 1.0 0.00 0.00 0.00 89 1018.0
20260901025006 78 0 0.0 0.0 0.00 0.00 0.00 89 1018.0
20260901024526 78 0 0.0 0.0 0.00 0.00 0.00 89 1018.0
20260901024026 78 14 0.0 2.0 0.00 0.00 0.00 89 1017.9